{"data":{"norad_id":67426,"intl_designator":"2026-005Y","name":"STARLINK-36146","alt_names":[],"object_type":"PAYLOAD","status":"ACTIVE","operator":null,"country":"US","launch_date":"2026-01-12","launch_site_code":"AFETR","launch_vehicle":null,"mission":null,"orbit_class":"UNKNOWN","rcs_meters":null,"size_class":null,"mass_kg":null,"dimensions":null,"purposes":["comms"],"wikipedia_slug":null,"has_3d_model":false,"image_url":null,"decayed_at":null,"tle_current":{"epoch":"2026-09-19T07:26:03.645024Z","epoch_age_seconds":178281,"freshness":"STALE","line1":"1 67426U 26005Y   26262.30976441  .00007522  00000+0  28255-3 0  9990","line2":"2 67426  43.0003 224.9087 0001377 268.9122  91.1572 15.27584503 38294","mean_motion":15.27584503,"eccentricity":0.0001377,"inclination_deg":43.0003,"raan_deg":224.9087,"arg_perigee_deg":268.9122,"mean_anomaly_deg":91.1572,"bstar":0.00028255,"rev_number":3829,"period_min":94.266470834969,"perigee_km":482.09082900209,"apogee_km":483.98039593957,"semimajor_km":6861.1726124708,"source":"CELESTRAK","updated_at":"2026-09-20T09:00:43.524164Z"}}}